Time,TemperatureF,DewpointF,PressureIn,WindDirection,WindDirectionDegrees,WindSpeedMPH,WindSpeedGustMPH,Humidity,HourlyPrecipIn,Conditions,Clouds,dailyrainin,SolarRadiationWatts/m^2,SoftwareType,DateUTC
2015-01-29 00:05:00,23.5,13.5,29.78,ESE,107,3.0,8.0,65,0.00,,,0.00,0,Wunderground v.1.15,2015-01-29 05:05:00,
2015-01-29 00:10:00,23.5,13.5,29.77,East,98,6.0,8.0,65,0.00,,,0.00,0,Wunderground v.1.15,2015-01-29 05:10:00,
2015-01-29 00:20:00,23.5,13.8,29.76,East,101,4.0,8.0,66,0.00,,,0.00,0,Wunderground v.1.15,2015-01-29 05:20:00,
2015-01-29 00:30:00,23.5,13.5,29.76,SE,137,2.0,8.0,65,0.00,,,0.00,0,Wunderground v.1.15,2015-01-29 05:30:00,
2015-01-29 00:40:00,23.5,13.5,29.75,ESE,117,3.0,8.0,65,0.00,,,0.00,0,Wunderground v.1.15,2015-01-29 05:40:00,
2015-01-29 00:45:00,23.6,13.9,29.75,SE,145,2.0,8.0,66,0.00,,,0.00,0,Wunderground v.1.15,2015-01-29 05:45:00,
2015-01-29 00:50:00,23.6,13.5,29.75,ESE,114,4.0,8.0,65,0.00,,,0.00,0,Wunderground v.1.15,2015-01-29 05:50:00,
2015-01-29 01:00:00,23.8,13.7,29.74,ESE,108,4.0,8.0,65,0.00,,,0.00,0,Wunderground v.1.15,2015-01-29 06:00:00,
2015-01-29 01:10:00,23.8,13.7,29.74,ESE,103,4.0,8.0,65,0.00,,,0.00,0,Wunderground v.1.15,2015-01-29 06:10:00,
2015-01-29 01:15:00,23.9,13.8,29.74,ESE,109,3.0,8.0,65,0.00,,,0.00,0,Wunderground v.1.15,2015-01-29 06:15:00,
2015-01-29 01:25:00,23.9,13.8,29.74,SE,145,8.0,8.0,65,0.00,,,0.00,0,Wunderground v.1.15,2015-01-29 06:25:00,
2015-01-29 01:35:00,24.1,14.0,29.73,ESE,122,8.0,8.0,65,0.00,,,0.00,0,Wunderground v.1.15,2015-01-29 06:35:00,
2015-01-29 01:45:00,24.2,14.1,29.72,ESE,111,2.0,10.0,65,0.00,,,0.00,0,Wunderground v.1.15,2015-01-29 06:45:00,
2015-01-29 01:55:00,24.2,14.1,29.71,East,101,3.0,8.0,65,0.00,,,0.00,0,Wunderground v.1.15,2015-01-29 06:55:00,
2015-01-29 02:05:00,24.3,14.2,29.71,ESE,115,4.0,8.0,65,0.00,,,0.00,0,Wunderground v.1.15,2015-01-29 07:05:00,
2015-01-29 02:15:00,24.3,14.6,29.70,ESE,120,5.0,8.0,66,0.00,,,0.00,0,Wunderground v.1.15,2015-01-29 07:15:00,
2015-01-29 02:25:00,24.2,14.1,29.69,East,97,9.0,9.0,65,0.00,,,0.00,0,Wunderground v.1.15,2015-01-29 07:25:00,
2015-01-29 02:35:00,24.2,14.8,29.68,ESE,106,4.0,8.0,67,0.00,,,0.00,0,Wunderground v.1.15,2015-01-29 07:35:00,
2015-01-29 02:40:00,24.1,14.4,29.68,ESE,110,4.0,8.0,66,0.00,,,0.00,0,Wunderground v.1.15,2015-01-29 07:40:00,
2015-01-29 02:50:00,24.0,14.6,29.67,East,99,4.0,8.0,67,0.00,,,0.00,0,Wunderground v.1.15,2015-01-29 07:50:00,
2015-01-29 03:00:00,24.2,14.8,29.66,ESE,121,5.0,8.0,67,0.00,,,0.00,0,Wunderground v.1.15,2015-01-29 08:00:00,
2015-01-29 03:10:00,24.2,15.2,29.65,ESE,104,8.0,8.0,68,0.00,,,0.00,0,Wunderground v.1.15,2015-01-29 08:10:00,
2015-01-29 03:20:00,24.5,15.4,29.65,ESE,115,7.0,8.0,68,0.00,,,0.00,0,Wunderground v.1.15,2015-01-29 08:20:00,
2015-01-29 03:30:00,24.6,15.9,29.65,ESE,113,3.0,8.0,69,0.00,,,0.00,0,Wunderground v.1.15,2015-01-29 08:30:00,
2015-01-29 03:40:00,24.9,16.2,29.64,ESE,105,6.0,8.0,69,0.00,,,0.00,0,Wunderground v.1.15,2015-01-29 08:40:00,
2015-01-29 03:45:00,25.1,16.4,29.63,East,91,7.0,8.0,69,0.00,,,0.00,0,Wunderground v.1.15,2015-01-29 08:45:00,
2015-01-29 03:55:00,25.2,16.5,29.63,ESE,109,4.0,8.0,69,0.00,,,0.00,0,Wunderground v.1.15,2015-01-29 08:55:00,
2015-01-29 04:00:00,25.4,16.6,29.62,East,97,3.0,8.0,69,0.00,,,0.00,0,Wunderground v.1.15,2015-01-29 09:00:00,
2015-01-29 04:10:00,25.5,16.7,29.61,ESE,108,4.0,8.0,69,0.00,,,0.00,0,Wunderground v.1.15,2015-01-29 09:10:00,